Regional Weather Roundup
Issued by NWS Lake Charles, LA

Home | Current Version | Previous Version | Text Only | Print | Product List | Glossary On
Versions: 1 2 3 4 5 6 7 8 9 10 11 12 13 14 15 16 17 18 19 20 21 22 23 24 25 26 27 28 29 30 31 32 33 34 35 36 37 38 39 40 41 42 43 44 45 46 47 48 49
000
ASUS44 KLCH 212010
RWRLCH
RWRLCH
REGIONAL WEATHER ROUNDUP
NATIONAL WEATHER SERVICE LAKE CHARLES LA
300 PM CDT TUE OCT 21 2014

Note: "fair" indicates few or no clouds below 12,000 feet with no
significant weather and/or obstructions to visibility.


ACROSS SOUTHEAST TEXAS

CITY           SKY/WX    TMP DP  RH WIND       PRES   REMARKS
BEAUMONT       SUNNY     82  56  40 NE13      29.99F
BEAUMONT CITY    N/A     80  57  46 E9        30.00F
ORANGE         CLEAR     80  55  42 NE7       30.02F
JASPER         SUNNY     79  60  51 NE8       30.04F
$$

ACROSS CENTRAL LOUISIANA

CITY           SKY/WX    TMP DP  RH WIND       PRES   REMARKS
LEESVILLE      SUNNY     79  61  53 N9        30.01F
FULLERTON        N/A     83  60  45 VRB3      29.99F
ALEXANDRIA INT SUNNY     81  60  48 NE7       30.00F
ESLER FIELD    SUNNY     79  61  53 E8        30.02F
DERIDDER         N/A     80  61  52 NE8       30.03F
OAKDALE        CLEAR     80  60  51 N8        30.01F
OPELOUSAS        N/A     79  56  44 N13       30.00F
$$

ACROSS SOUTHWEST AND SOUTH CENTRAL LOUISIANA

CITY           SKY/WX    TMP DP  RH WIND       PRES   REMARKS
SULPHUR        CLEAR     82  55  39 NE10      30.01F
LAKE CHARLES   SUNNY     80  55  42 NE12      30.00F
CHENNAULT INT  NOT AVBL
CAMERON PHI    CLEAR     81  55  41 E12       30.02F
DEQUINCY         N/A     78  59  50 N7        30.01F
JENNINGS         N/A     80  56  42 NE13      30.00F
LAFAYETTE      SUNNY     81  55  40 N12       30.00F
NEW IBERIA     SUNNY     82  56  40 NE12      30.00F
ABBEVILLE        N/A     80  56  44 NE8       29.99F
PATTERSON      SUNNY     81  55  41 NE9       30.01S
SALT POINT       N/A     82  57  42 VRB5      29.97F
$$

SELECTED SITES ACROSS THE REGION

CITY           SKY/WX    TMP DP  RH WIND       PRES   REMARKS
HOUSTON BUSH   MOSUNNY   81  55  40 E9G16     30.00F
HOUSTON HOBBY  SUNNY     81  52  36 E8        29.99F
GALVESTON      SUNNY     79  58  48 NE15      29.99F
COLLEGE STAT   SUNNY     81  55  40 E8        30.01F
CONROE         SUNNY     80  54  40 E8        30.01F
HUNTSVILLE     SUNNY     81  56  42 E7        30.02F
LUFKIN         SUNNY     82  59  45 E12       30.03F
SHREVEPORT     MOSUNNY   81  60  48 VRB5      30.03F
MONROE         SUNNY     79  60  52 NW7       30.04F
NATCHEZ MS     SUNNY     75  57  53 N6        30.03F
BATON ROUGE    SUNNY     81  54  39 NE5       30.00F
N.O. INTL ARPT SUNNY     78  53  41 N6        30.00F
SLIDELL        SUNNY     81  54  39 NE8       29.98F
$$

MARINE REPORTS

STATION/POSITION TIME  TEMP    WIND        PRES    VSBY  WAVE
                       AIR SEA DIR/SP/G                  HT/PER
                 (UTC) (F)     (DEG/KT/KT) (MB)    (MI)  (FT/S)
BUOY 30 S HIGH I 2000   74 78   50/ 16/ 17 1015.1F         3/ 5
SEA RIM ST PARK  2000   78      30/ 12/ 16 1016.0F
PORT ARTHUR      2000      76   60/  6/ 10 1015.8F
SABINE PASS N    2000   78 75   50/ 11/ 15 1015.7F
TEXAS POINT      2000   77 74   70/ 10/ 15 1015.8F
CALCASIEU PASS   2000   78 74   80/ 10/ 13   N/A
LK CHARLES BEACH 2000   80 76              1016.0F
MARSH ISLAND     NOT AVBL
FRESH WATER LOCK 2000   80 75   50/  8/ 14 1015.4F
AMERADA PASS     2000   78 72   30/  3/  8 1015.1F
$$



USA.gov is the U.S. government's official web portal to all federal, state and local government web resources and services.